Orbital Elements at Epoch 2459200.5 (2020-Dec-17.0) TDB
Reference: JPL 25 (heliocentric ecliptic J2000)
Element | Value | Uncertainty (1-sigma) | Units |
e | .1737578964737365 | 5.9196e-08 | |
a | 2.317056740958116 | 8.5228e-09 | au |
q | 1.914449835638942 | 1.3875e-07 | au |
i | 5.064047901362633 | 6.5026e-06 | deg |
node | 10.21638993572321 | 3.8623e-05 | deg |
peri | 163.0121374925421 | 4.1173e-05 | deg |
M | 344.2918368924988 | 1.3443e-05 | deg |
tp | 2459256.711649796150 (2021-Feb-11.21164980) | 4.8165e-05 | TDB |
period | 1288.259727641263 3.53 | 7.1079e-06 1.946e-08 | d yr |
n | .2794467546223318 | 1.5418e-09 | deg/d |
Q | 2.719663646277289 | 1.0004e-08 | au |
|
| | Orbit Determination Parameters
Additional Information
|